Flag for Canada Weather past 2 weeks in East Hants, Nova Scotia, Canada

Now
63 °F

Overcast.


Feels Like: 63 °F
Forecast: N/A
Wind: 9 mph from North

Location: Halifax International Airport

Current Time: Aug 22, 2014 at 8:54:27 PM

Latest Report: Aug 22, 2014 at 8:00 PM


Visibility: 15 mi

Pressure: 30.10 "Hg

Humidity: 83%

Dew point: 57 °F

Location of East HantsLocation

Historic Weather in East Hants — Graph

°F

East Hants temperature yesterday

Maximum temperature yesterday: 72 °F (at 3:00 PM)
Minimum temperature yesterday: 55 °F (at 4:00 AM)
Average temperature yesterday: 63 °F

Past Weeks' High & Low Weather Summary

 TemperatureHumidityPressure
High79 °F (Aug 20, 4:00 PM)100% (Aug 8, 11:00 PM)30.19 "Hg (Aug 8, 11:00 PM)
Low55 °F (Aug 12, 3:00 AM)45% (Aug 20, 5:00 PM)29.59 "Hg (Aug 18, 2:00 PM)
Average64 °F82%29.95 "Hg
* Reported Aug 7 7:00 PM — Aug 22 7:00 PM, East Hants, Weather by CustomWeather, © 2014

Note: Actual official high and low records may vary slightly from our data, if they occured in-between our weather recording intervals... More about our weather records

Advertising

East Hants weather history for previous 24 hours

 ConditionsComfort  
Time TempWeatherWind HumidityBarometerVisibility
7:00 PM
Aug 22
64 °FOvercast.13 mph78%30.09 "Hg15 mi
6:00 PM64 °FOvercast.10 mph78%30.09 "Hg15 mi
5:00 PM66 °FSprinkles. More clouds than sun.12 mph73%30.09 "Hg15 mi
4:00 PM66 °FSprinkles. More clouds than sun.10 mph78%30.08 "Hg15 mi
3:00 PM66 °FMore clouds than sun.13 mph73%30.09 "Hg15 mi
2:00 PM68 °FMore clouds than sun.12 mph69%30.09 "Hg15 mi
1:00 PM68 °FPartly sunny.13 mph69%30.10 "Hg15 mi
12:00 PM64 °FOvercast.13 mph78%30.12 "Hg15 mi
11:00 AM66 °FPartly sunny.10 mph73%30.13 "Hg15 mi
10:00 AM64 °FPartly sunny.14 mph78%30.12 "Hg15 mi
9:00 AM63 °FBroken clouds.12 mph83%30.12 "Hg15 mi
8:00 AM59 °FPartly sunny.8 mph94%30.13 "Hg15 mi
7:00 AM57 °FPassing clouds.7 mph94%30.13 "Hg15 mi
6:00 AM57 °FPassing clouds.5 mph94%30.11 "Hg15 mi
5:00 AM55 °FPartly cloudy.6 mph100%30.10 "Hg15 mi
4:00 AM55 °FPassing clouds.5 mph100%30.11 "Hg15 mi
3:00 AM55 °FPassing clouds.6 mph100%30.11 "Hg15 mi
2:00 AM57 °FPassing clouds.6 mph94%30.10 "Hg15 mi
1:00 AM59 °FPassing clouds.9 mph94%30.11 "Hg15 mi
12:00 AM59 °FOvercast.7 mph94%30.12 "Hg15 mi
11:00 PM
Aug 21
61 °FOvercast.9 mph88%30.12 "Hg15 mi
10:00 PM63 °FPassing clouds.9 mph83%30.12 "Hg15 mi
9:00 PM63 °FPartly sunny.9 mph83%30.12 "Hg15 mi
8:00 PM64 °FPartly sunny.7 mph78%30.11 "Hg15 mi
Weather by CustomWeather, © 2014

See weather overviewHow to use our weather pages